EW8450 Weather Reports


time (UTC)temp
C
wind
direction
speed
KPH
gust
KPH
rain 1hr
cm
rain 24hr
cm
rain mn
cm
humidity
%
barometer
mb
20260507023200 13 0 0.0 0.0 0.00 0.00 0.00 81 1019.1
20260507022701 13 0 0.0 0.0 0.00 0.00 0.00 80 1019.1
20260507022201 13 0 0.0 0.0 0.00 0.00 0.00 80 1019.0
20260507021701 13 0 0.0 3.2 0.00 0.00 0.00 80 1019.0
20260507021426 13 0 1.6 4.8 0.00 0.00 0.00 79 1019.0
20260507020927 13 189 1.6 4.8 0.00 0.00 0.00 78 1019.1
20260507020201 13 0 0.0 3.2 0.00 0.00 0.00 79 1019.1
20260507015701 13 176 0.0 3.2 0.00 0.00 0.00 79 1019.1
20260507015203 13 0 0.0 4.8 0.00 0.00 0.00 79 1019.1
20260507014703 13 0 0.0 4.8 0.00 0.00 0.00 78 1019.1
20260507014204 13 0 0.0 0.0 0.00 0.00 0.00 78 1019.1
20260507013703 13 0 0.0 0.0 0.00 0.00 0.00 79 1019.1
20260507013203 13 0 0.0 0.0 0.00 0.00 0.00 79 1019.1
20260507012934 13 0 0.0 6.4 0.00 0.00 0.00 78 1019.1
20260507012433 13 0 1.6 6.4 0.00 0.00 0.00 78 1019.1
20260507011704 13 172 0.0 6.4 0.00 0.00 0.00 77 1019.1
20260507011425 13 0 0.0 0.0 0.00 0.00 0.00 78 1019.1
20260507010703 13 0 0.0 0.0 0.00 0.00 0.00 80 1019.1
20260507010203 13 0 0.0 0.0 0.00 0.00 0.00 79 1019.2
20260507005703 13 0 0.0 0.0 0.00 0.00 0.00 79 1019.2
20260507005436 13 0 0.0 0.0 0.00 0.00 0.00 79 1019.2
20260507004648 13 0 1.6 4.8 0.00 0.00 0.00 77 1019.3
20260507004147 13 0 1.6 4.8 0.00 0.00 0.00 78 1019.3
20260507003647 13 0 1.6 6.4 0.00 0.00 0.00 77 1019.3
20260507003147 13 198 1.6 6.4 0.00 0.00 0.00 77 1019.3
20260507002648 13 173 0.0 3.2 0.00 0.00 0.00 77 1019.2
20260507002148 13 0 1.6 4.8 0.00 0.00 0.00 76 1019.3
20260507001647 13 329 3.2 8.0 0.00 0.00 0.00 77 1019.3
20260507001148 13 197 3.2 8.0 0.00 0.00 0.00 76 1019.3
20260507000648 13 187 1.6 6.4 0.00 0.00 0.00 77 1019.3
20260507000148 13 184 3.2 6.4 0.00 0.00 0.00 77 1019.3
20260506235632 13 185 3.2 6.4 0.00 0.00 0.00 76 1019.3
20260506235134 13 214 3.2 6.4 0.00 0.00 0.00 76 1019.3
20260506234633 13 168 3.2 6.4 0.00 0.00 0.00 77 1019.3
20260506234403 13 188 3.2 6.4 0.00 0.00 0.00 77 1019.2
20260506233637 13 179 1.6 6.4 0.00 0.00 0.00 79 1019.2
20260506233134 13 184 3.2 6.4 0.00 0.00 0.00 77 1019.3
20260506232632 13 177 3.2 6.4 0.00 0.00 0.00 77 1019.3
20260506232131 13 188 1.6 6.4 0.00 0.00 0.00 78 1019.4
20260506231631 13 174 1.6 8.0 0.00 0.00 0.00 79 1019.4
20260506231131 12 0 3.2 9.7 0.00 0.00 0.00 78 1019.4
20260506230627 12 185 3.2 9.7 0.00 0.00 0.00 78 1019.4
20260506230119 12 166 3.2 8.0 0.00 0.00 0.00 79 1019.5
20260506225619 12 168 4.8 9.7 0.00 0.00 0.00 78 1019.4
20260506225119 12 172 3.2 9.7 0.00 0.00 0.00 78 1019.4
20260506224851 12 0 3.2 9.7 0.00 0.00 0.00 79 1019.4
20260506224120 12 178 3.2 9.7 0.00 0.00 0.00 79 1019.5
20260506223627 12 0 3.2 9.7 0.00 0.00 0.00 79 1019.5
20260506222906 12 143 4.8 9.7 0.00 0.00 0.00 79 1019.5
20260506222119 12 183 3.2 9.7 0.00 0.00 0.00 79 1019.6
20260506221620 13 169 1.6 8.0 0.00 0.00 0.00 80 1019.6
20260506221120 12 0 1.6 4.8 0.00 0.00 0.00 80 1019.6
20260506220620 12 191 0.0 4.8 0.00 0.00 0.00 81 1019.6
20260506220120 12 0 1.6 8.0 0.00 0.00 0.00 81 1019.6
20260506215609 12 186 1.6 8.0 0.00 0.00 0.00 80 1019.6
20260506215336 12 190 1.6 4.8 0.00 0.00 0.00 80 1019.6
20260506214604 12 179 1.6 8.0 0.00 0.00 0.00 81 1019.6
20260506214105 12 170 1.6 8.0 0.00 0.00 0.00 81 1019.6
20260506213602 12 0 0.0 1.6 0.00 0.00 0.00 83 1019.6
20260506213105 12 0 0.0 4.8 0.00 0.00 0.00 82 1019.6
20260506212102 12 180 3.2 6.4 0.00 0.00 0.00 83 1019.6
20260506211601 12 182 3.2 6.4 0.00 0.00 0.00 84 1019.6
20260506211101 12 174 1.6 6.4 0.00 0.00 0.00 83 1019.7
20260506210836 12 184 1.6 6.4 0.00 0.00 0.00 84 1019.6
20260506210104 12 0 1.6 6.4 0.00 0.00 0.00 85 1019.6
20260506205603 12 172 0.0 4.8 0.00 0.00 0.00 84 1019.5
20260506205103 12 0 1.6 3.2 0.00 0.00 0.00 85 1019.6
20260506204603 12 72 0.0 3.2 0.00 0.00 0.00 84 1019.6
20260506204102 12 0 0.0 4.8 0.00 0.00 0.00 84 1019.5
20260506203602 12 0 1.6 4.8 0.00 0.00 0.00 84 1019.5
20260506203102 12 0 1.6 4.8 0.00 0.00 0.00 85 1019.5
20260506202602 12 144 0.0 4.8 0.00 0.00 0.00 86 1019.5
20260506202102 12 0 0.0 3.2 0.00 0.00 0.00 86 1019.5
20260506201602 12 1 0.0 3.2 0.00 0.00 0.00 86 1019.4
20260506201101 12 0 0.0 1.6 0.00 0.00 0.00 87 1019.4
20260506200602 12 0 0.0 0.0 0.00 0.00 0.00 87 1019.4
20260506195602 12 0 0.0 3.2 0.00 0.00 0.00 87 1019.3
20260506195338 12 0 0.0 3.2 0.00 0.00 0.00 87 1019.3
20260506194605 12 0 0.0 3.2 0.00 0.00 0.00 88 1019.3
20260506194053 12 350 0.0 3.2 0.00 0.00 0.00 87 1019.3
20260506193827 12 0 0.0 3.2 0.00 0.00 0.00 87 1019.3
20260506193052 12 0 0.0 3.2 0.00 0.00 0.00 87 1019.2
20260506192551 12 0 0.0 0.0 0.00 0.00 0.00 87 1019.2
20260506192051 12 0 0.0 1.6 0.00 0.00 0.00 87 1019.1
20260506191551 12 0 0.0 1.6 0.00 0.00 0.00 87 1019.1
20260506191052 12 0 0.0 3.2 0.00 0.00 0.00 87 1019.1
20260506190824 12 0 1.6 3.2 0.00 0.00 0.00 87 1019.1
20260506190052 12 39 1.6 3.2 0.00 0.00 0.00 87 1019.2
20260506185552 12 20 0.0 3.2 0.00 0.00 0.00 87 1019.3
20260506185038 12 180 0.0 3.2 0.00 0.00 0.00 87 1019.2
20260506184530 12 172 0.0 3.2 0.00 0.00 0.00 88 1019.2
20260506184031 12 0 0.0 3.2 0.00 0.00 0.00 88 1019.2
20260506183530 12 0 1.6 4.8 0.00 0.00 0.00 88 1019.2
20260506183030 12 0 1.6 6.4 0.00 0.00 0.00 88 1019.2
20260506182530 12 15 3.2 6.4 0.00 0.00 0.00 88 1019.2
20260506182029 12 170 4.8 6.4 0.00 0.00 0.00 88 1019.1
20260506181806 12 167 3.2 8.0 0.00 0.00 0.00 88 1019.0
20260506181031 12 171 4.8 8.0 0.00 0.00 0.00 88 1018.9
20260506180531 12 161 3.2 6.4 0.00 0.00 0.00 87 1018.8
20260506180031 12 163 3.2 6.4 0.00 0.00 0.00 87 1018.9
20260506175530 12 189 3.2 6.4 0.00 0.00 0.00 87 1018.9
20260506175029 12 172 3.2 6.4 0.00 0.00 0.00 86 1018.8
20260506174529 12 201 3.2 4.8 0.00 0.00 0.00 87 1018.8
20260506174031 12 195 3.2 4.8 0.00 0.00 0.00 87 1019.0
20260506173530 12 0 3.2 6.4 0.00 0.00 0.00 87 1019.0
20260506173305 12 186 3.2 6.4 0.00 0.00 0.00 87 1019.0
20260506172529 12 187 1.6 6.4 0.00 0.00 0.00 87 1019.1
20260506172030 12 0 1.6 6.4 0.00 0.00 0.00 86 1019.1
20260506171530 12 175 1.6 6.4 0.00 0.00 0.00 86 1019.0
20260506171030 12 0 0.0 4.8 0.00 0.00 0.00 87 1019.0
20260506170803 12 162 0.0 4.8 0.00 0.00 0.00 87 1019.0
20260506170029 12 0 1.6 4.8 0.00 0.00 0.00 88 1018.9
20260506165758 12 162 3.2 8.0 0.00 0.00 0.00 87 1018.8
20260506165014 12 155 3.2 9.7 0.00 0.00 0.00 88 1018.8
20260506164512 12 163 4.8 9.7 0.00 0.00 0.00 87 1018.7
20260506164007 12 158 4.8 8.0 0.00 0.00 0.00 88 1018.6
20260506163507 12 177 4.8 8.0 0.00 0.00 0.00 87 1018.5
20260506163337 12 157 4.8 9.7 0.00 0.00 0.00 88 1018.4
20260506162007 12 0 3.2 6.4 0.00 0.00 0.00 89 1018.3
20260506161507 12 191 3.2 9.7 0.00 0.00 0.00 89 1018.3
20260506161007 12 0 4.8 11.3 0.00 0.00 0.00 89 1018.4
20260506160757 12 157 4.8 11.3 0.00 0.00 0.00 89 1018.4
20260506160301 12 193 3.2 9.7 0.00 0.00 0.00 88 1018.5
20260506155801 12 173 1.6 8.0 0.00 0.00 0.00 88 1018.5
20260506155008 12 176 1.6 6.4 0.00 0.00 0.00 89 1018.6
20260506154507 12 167 1.6 4.8 0.00 0.00 0.00 89 1018.7
20260506154006 12 0 3.2 8.0 0.00 0.00 0.00 90 1018.6
20260506153502 12 115 3.2 8.0 0.00 0.00 0.00 90 1018.5
20260506153255 12 171 3.2 8.0 0.00 0.00 0.00 90 1018.5
20260506152503 12 179 1.6 8.0 0.00 0.00 0.00 90 1018.5
20260506152001 12 171 1.6 8.0 0.00 0.00 0.00 91 1018.5
20260506151501 12 0 0.0 3.2 0.00 0.00 0.00 91 1018.4
20260506151001 12 217 0.0 6.4 0.00 0.00 0.00 91 1018.3
20260506150501 12 0 1.6 6.4 0.00 0.00 0.00 92 1018.4
20260506150002 12 173 1.6 6.4 0.00 0.00 0.00 91 1018.4
20260506145502 12 0 3.2 9.7 0.00 0.00 0.00 91 1018.4
20260506145002 12 179 3.2 9.7 0.00 0.00 0.00 91 1018.4
20260506144501 12 168 1.6 8.0 0.00 0.00 0.00 91 1018.5
20260506144252 12 0 1.6 6.4 0.00 0.00 0.00 91 1018.4
20260506143501 12 0 1.6 6.4 0.00 0.00 0.00 91 1018.4
20260506143002 12 0 0.0 3.2 0.00 0.00 0.00 91 1018.3
20260506142502 12 0 0.0 3.2 0.00 0.00 0.00 92 1018.1
20260506142002 12 0 0.0 6.4 0.00 0.00 0.00 92 1018.1
20260506141502 11 0 1.6 8.0 0.00 0.00 0.00 91 1018.2
20260506141002 12 0 3.2 8.0 0.00 0.00 0.00 91 1018.1
20260506140501 12 176 1.6 6.4 0.00 0.00 0.00 91 1018.2
20260506140002 12 170 1.6 8.0 0.00 0.00 0.00 90 1018.3
20260506135503 12 0 1.6 8.0 0.00 0.00 0.00 90 1018.2
20260506135002 12 0 0.0 4.8 0.00 0.00 0.00 90 1018.1
20260506134502 12 0 1.6 4.8 0.00 0.00 0.00 90 1018.2
20260506134003 12 0 1.6 6.4 0.00 0.00 0.00 90 1018.1
20260506133502 12 170 1.6 6.4 0.00 0.00 0.00 90 1018.1
20260506133003 12 170 1.6 4.8 0.00 0.00 0.00 90 1017.9
20260506132748 12 0 1.6 4.8 0.00 0.00 0.00 90 1018.0
20260506132002 12 0 1.6 8.0 0.00 0.00 0.00 90 1017.8
20260506131502 12 0 1.6 8.0 0.00 0.00 0.00 90 1017.5
20260506131002 12 0 0.0 4.8 0.00 0.00 0.00 90 1017.6
20260506130511 12 163 1.6 4.8 0.00 0.00 0.00 90 1017.7
20260506130011 12 161 1.6 6.4 0.00 0.00 0.00 90 1017.8
20260506125512 12 0 1.6 6.4 0.00 0.00 0.00 90 1017.7
20260506125008 12 186 1.6 6.4 0.00 0.00 0.00 90 1017.6
20260506124509 12 0 3.2 8.0 0.00 0.00 0.00 90 1017.6
20260506124010 12 175 3.2 9.7 0.00 0.00 0.00 89 1017.5
20260506123510 12 171 3.2 9.7 0.00 0.00 0.00 89 1017.4
20260506123258 12 183 3.2 6.4 0.00 0.00 0.00 89 1017.4
20260506122510 12 180 3.2 8.0 0.00 0.00 0.00 89 1017.4
20260506122010 12 180 3.2 8.0 0.00 0.00 0.00 88 1017.4
20260506121511 12 184 3.2 8.0 0.00 0.00 0.00 88 1017.5
20260506121011 12 170 3.2 8.0 0.00 0.00 0.00 88 1017.5
20260506120753 12 177 3.2 8.0 0.00 0.00 0.00 88 1017.4
20260506120006 12 0 1.6 6.4 0.00 0.00 0.00 88 1017.3
20260506115503 12 171 3.2 6.4 0.00 0.00 0.00 87 1017.2
20260506114954 12 0 3.2 8.0 0.00 0.00 0.00 87 1017.2
20260506114453 12 144 3.2 8.0 0.00 0.00 0.00 87 1017.2
20260506113953 12 156 3.2 8.0 0.00 0.00 0.00 87 1017.2
20260506113741 12 165 3.2 6.4 0.00 0.00 0.00 87 1017.2
20260506112954 12 0 1.6 6.4 0.00 0.00 0.00 87 1017.2
20260506112454 12 0 0.0 6.4 0.00 0.00 0.00 87 1017.1
20260506111954 12 0 3.2 9.7 0.00 0.00 0.00 86 1017.1
20260506111454 12 177 4.8 9.7 0.00 0.00 0.00 86 1017.1
20260506111239 12 168 3.2 9.7 0.00 0.00 0.00 86 1017.1
20260506110450 12 182 1.6 6.4 0.00 0.00 0.00 86 1017.1
20260506105958 12 0 0.0 4.8 0.00 0.00 0.00 87 1017.0
20260506105458 12 0 0.0 4.8 0.00 0.00 0.00 87 1017.0
20260506104958 12 0 0.0 3.2 0.00 0.00 0.00 87 1017.0
20260506104458 12 0 1.6 6.4 0.00 0.00 0.00 87 1016.9
20260506103959 12 0 1.6 6.4 0.00 0.00 0.00 87 1016.8
20260506103455 12 164 1.6 4.8 0.00 0.00 0.00 87 1016.8
20260506103025 12 0 0.0 4.8 0.00 0.00 0.00 87 1016.8
20260506102027 12 0 0.0 3.2 0.00 0.00 0.00 87 1016.7
20260506100953 12 0 0.0 6.4 0.00 0.00 0.00 87 1016.6
20260506100444 12 112 0.0 3.2 0.00 0.00 0.00 87 1016.6
20260506095944 12 0 0.0 4.8 0.00 0.00 0.00 87 1016.5
20260506095444 12 0 0.0 4.8 0.00 0.00 0.00 87 1016.5
20260506094944 12 0 1.6 4.8 0.00 0.00 0.00 86 1016.4
20260506094733 12 0 1.6 4.8 0.00 0.00 0.00 87 1016.4
20260506094228 12 346 1.6 4.8 0.00 0.00 0.00 87 1016.4
20260506093440 12 0 1.6 4.8 0.00 0.00 0.00 87 1016.4
20260506092940 12 0 1.6 4.8 0.00 0.00 0.00 87 1016.4
20260506092440 12 0 1.6 4.8 0.00 0.00 0.00 87 1016.3
20260506091940 12 343 1.6 4.8 0.00 0.00 0.00 86 1016.3
20260506091440 12 178 1.6 4.8 0.00 0.00 0.00 87 1016.2
20260506090940 12 172 3.2 8.0 0.00 0.00 0.00 87 1016.2
20260506090805 12 190 3.2 8.0 0.00 0.00 0.00 87 1016.2
20260506085437 12 188 1.6 4.8 0.00 0.00 0.00 89 1016.0
20260506084937 11 179 1.6 6.4 0.00 0.00 0.00 89 1016.0
20260506084437 11 354 1.6 6.4 0.00 0.00 0.00 91 1015.9
20260506083938 11 89 0.0 6.4 0.00 0.00 0.00 93 1015.9
20260506083438 11 0 0.0 6.4 0.00 0.00 0.00 95 1015.9
20260506082937 11 0 0.0 6.4 0.00 0.00 0.00 95 1015.9
20260506082437 10 0 0.0 1.6 0.00 0.00 0.00 95 1015.9
20260506081938 10 0 0.0 3.2 0.00 0.00 0.00 95 1015.9
20260506081439 10 0 0.0 3.2 0.00 0.00 0.00 95 1015.9
20260506080938 10 0 0.0 0.0 0.00 0.00 0.00 96 1015.9
20260506080438 10 0 0.0 0.0 0.00 0.00 0.00 95 1015.9
20260506073432 11 0 0.0 0.0 0.00 0.00 0.00 95 1015.8
20260506072933 11 0 0.0 0.0 0.00 0.00 0.00 95 1015.8
20260506072433 11 0 0.0 0.0 0.00 0.00 0.00 95 1015.8
20260506072224 11 0 0.0 0.0 0.00 0.00 0.00 95 1015.9
20260506071433 11 0 0.0 0.0 0.00 0.00 0.00 95 1015.8
20260506070933 11 0 0.0 0.0 0.00 0.00 0.00 95 1015.8
20260506070433 11 0 0.0 0.0 0.00 0.00 0.00 95 1015.7
20260506062429 11 0 0.0 0.0 0.00 0.00 0.00 94 1015.3
20260506061929 11 0 0.0 0.0 0.00 0.00 0.00 94 1015.3
20260506061429 11 0 0.0 0.0 0.00 0.00 0.00 94 1015.2
20260506060930 11 0 0.0 0.0 0.00 0.00 0.00 93 1015.2
20260506060428 11 0 0.0 0.0 0.00 0.00 0.00 93 1015.1
20260506050925 12 0 0.0 0.0 0.00 0.00 0.00 90 1014.8
20260506050425 12 0 0.0 0.0 0.00 0.00 0.00 90 1014.7
20260506044924 12 0 0.0 0.0 0.00 0.00 0.00 90 1014.7
20260506044424 12 0 0.0 0.0 0.00 0.00 0.00 90 1014.7
20260506043924 13 0 0.0 0.0 0.00 0.00 0.00 90 1014.6
20260506043424 13 0 0.0 0.0 0.00 0.00 0.00 89 1014.6
20260506042923 13 0 0.0 0.0 0.00 0.00 0.00 89 1014.6
20260506042424 13 0 0.0 0.0 0.00 0.00 0.00 89 1014.6
20260506041924 13 0 0.0 0.0 0.00 0.00 0.00 88 1014.6
20260506041425 13 0 0.0 0.0 0.00 0.00 0.00 88 1014.5
20260506040924 13 0 0.0 0.0 0.00 0.00 0.00 87 1014.6
20260506040714 13 0 0.0 0.0 0.00 0.00 0.00 87 1014.5
20260506040215 13 0 0.0 0.0 0.00 0.00 0.00 87 1014.5
20260506035421 13 0 0.0 0.0 0.00 0.00 0.00 86 1014.4
20260506034921 14 0 0.0 0.0 0.00 0.00 0.00 85 1014.4
20260506034713 14 0 0.0 0.0 0.00 0.00 0.00 85 1014.4
20260506033920 14 0 0.0 0.0 0.00 0.00 0.00 84 1014.3
20260506033713 15 0 0.0 0.0 0.00 0.00 0.00 83 1014.2
20260506032921 15 0 0.0 0.0 0.00 0.00 0.00 83 1014.2
20260506032422 15 0 0.0 0.0 0.00 0.00 0.00 82 1014.1
20260506031921 15 0 0.0 0.0 0.00 0.00 0.00 81 1014.1
20260506031421 15 0 0.0 0.0 0.00 0.00 0.00 80 1014.1
20260506030921 16 0 0.0 0.0 0.00 0.00 0.00 79 1014.1
20260506030421 16 0 0.0 0.0 0.00 0.00 0.00 77 1014.1
20260506025919 16 0 0.0 0.0 0.00 0.00 0.00 74 1014.0
20260506025420 16 0 0.0 0.0 0.00 0.00 0.00 74 1014.0
20260506024920 16 0 0.0 0.0 0.00 0.00 0.00 74 1014.0
20260506024420 17 0 0.0 3.2 0.00 0.00 0.00 73 1013.9
20260506023916 17 0 0.0 3.2 0.00 0.00 0.00 73 1013.9
20260506023416 17 0 0.0 4.8 0.00 0.00 0.00 71 1013.9